Location: Nairn
(57.5833°N, 3.8667°W)
Time: 22:22:24
(UTC+00:00)

Altair - Pass Details

Date: 09 October 2022
Orbit: 1501 x 1682 km, 47.2° (Epoch: 05 December)

Event Time Altitude Azimuth Distance (km) Brightness Sun altitude
Exits shadow 02:11:09 14° 146° (SSE) 3,482 9.2 -32.9°
Maximum altitude 02:13:34 15° 130° (SE) 3,397 9.3 -32.7°
Drops below altitude 10° 02:18:37 10° 98° (E) 3,862 9.9 -32.2°
Sets 02:23:30 0° 78° (ENE) 4,885 10.9 -31.8°
